This is the latest recevied weather packets stored in our database for station/object KO4MMQ-10. If no packets are shown the sender has not sent any weather packets the latest 10 day(s).
| Time | Temp. | Humidity | Pressure | Rain* | Wind** | Luminosity | Snow |
|---|---|---|---|---|---|---|---|
| 1777659508 | 18.33° C | 53% | 1016.7 hPa | 0 mm | - | - | - |
| 1777658908 | 18.33° C | 53% | 1016.8 hPa | 0 mm | - | - | - |
| 1777657708 | 17.78° C | 52% | 1016.7 hPa | 0 mm | - | - | - |
| 1777657108 | 17.78° C | 53% | 1016.7 hPa | 0 mm | - | - | - |
| 1777656509 | 17.78° C | 52% | 1016.7 hPa | 0 mm | - | - | - |
| 1777655908 | 17.22° C | 56% | 1016.6 hPa | 0 mm | - | - | - |
| 1777654708 | 16.67° C | 56% | 1016.7 hPa | 0 mm | - | - | - |
| 1777654108 | 16.67° C | 56% | 1016.7 hPa | 0 mm | - | - | - |
| 1777653508 | 16.67° C | 59% | 1016.7 hPa | 0 mm | - | - | - |
| 1777652908 | 16.67° C | 61% | 1016.9 hPa | 0 mm | - | - | - |
| 1777652308 | 16.67° C | 61% | 1016.9 hPa | 0 mm | - | - | - |
| 1777651708 | 16.67° C | 62% | 1017 hPa | 0 mm | - | - | - |
| 1777651108 | 16.67° C | 62% | 1017 hPa | 0 mm | - | - | - |
| 1777650509 | 16.67° C | 66% | 1017 hPa | 0 mm | - | - | - |
| 1777649908 | 16.67° C | 67% | 1016.8 hPa | 0 mm | - | - | - |
| 1777649309 | 16.11° C | 68% | 1016.9 hPa | 0 mm | - | - | - |
| 1777648708 | 16.11° C | 66% | 1016.8 hPa | 0 mm | - | - | - |
| 1777648108 | 16.11° C | 70% | 1016.7 hPa | 0 mm | - | - | - |
| 1777647508 | 16.11° C | 69% | 1016.5 hPa | 0 mm | - | - | - |
| 1777646908 | 15.56° C | 70% | 1016.7 hPa | 0 mm | - | - | - |
| 1777646308 | 15.56° C | 71% | 1016.7 hPa | 0 mm | - | - | - |
| 1777645741 | 15° C | 70% | 1016.6 hPa | 0 mm | - | - | - |
| 1777645708 | 15° C | 70% | 1016.6 hPa | 0 mm | - | - | - |
| 1777645109 | 15° C | 73% | 1016.7 hPa | 0 mm | - | - | - |
| 1777644508 | 14.44° C | 74% | 1016.7 hPa | 0 mm | - | - | - |
* Rain latest hour (hover to see other rain measurements)
** Current wind speed in m/s (hover to see current wind gust speed)